Hourly Data Report for February 02, 2003

SHERBROOKE A
QUEBEC

45°26'00.000" N
71°41'00.000" W
241.40 m
7028124
71610
YSC

Download Data

Hourly Data (February 2003)
Hourly Data Report for February 2, 2003
TIME
LST
Temp Definition
°C
Dew Point Definition
°C
Rel Hum Definition
%
Precip. Amount Definition
mm

Wind Dir Definition
10's deg

Wind Spd Definition
km/h
Visibility Definition
km
Stn Press Definition
kPa
Hmdx Definition


Wind Chill Definition


Weather Definition


00:00 0.1 -6.0 63   4 11 15.0 97.80      
01:00 0.4 -5.3 66   4 9 15.0 97.74      
02:00 -0.1 -4.9 70   4 15 4.8 97.70   -5 Snow
03:00 -0.9 -5.0 74   4 13 15.0 97.65   -5 Snow
04:00 -1.4 -5.2 75   4 17 3.4 97.58   -7 Snow
05:00 -1.8 -5.2 78   1 11 4.8 97.56   -6 Snow
06:00 -2.0 -5.0 80   3 11 1.4 97.47   -6 Snow
07:00 -1.9 -5.1 79   1 13 5.6 97.50   -6 Snow
08:00 -1.7 -5.0 78   34 7 4.8 97.44   -4 Snow
09:00 -1.7 -4.9 79   30 7 4.0 97.43   -4 Snow
10:00 -2.8 -5.8 80   32 11 1.6 97.38   -7 Snow
11:00 -2.8 -6.2 77   33 13 2.4 97.28   -7 Snow
12:00 -2.8 -6.3 77   32 11 2.4 97.18   -7 Snow
13:00 -2.8 -6.1 78   33 9 2.4 97.08   -6 Snow
14:00 -2.5 -5.9 77   34 11 2.4 97.07   -7 Snow
15:00 -2.1 -5.4 78   33 15 2.4 97.06   -7 Snow
16:00 -1.9 -4.9 80   32 9 2.4 97.08   -5 Snow
17:00 -1.9 -4.6 82   31 17 1.2 97.12   -7 Snow
18:00 -1.9 -4.5 82   32 13 1.1 97.13   -6 Snow
19:00 -1.2 -4.1 81   32 19 1.4 97.11   -7 Snow
20:00 -1.0 -4.7 76   32 22 12.9 97.14   -7 Snow
21:00 -0.9 -6.7 65   30 24 15.0 97.12   -7  
22:00 -1.0 -8.3 58   31 24 15.0 97.17   -7  
23:00 -1.0 -7.7 60   30 15 15.0 97.21   -6  

Notes on Data Quality.

Legend

  • E = Estimated
  • M = Missing
  • NA = Not Available*
  • [empty] = Indicates an unobserved value
Date modified: